GSAT0211 (GALILEO 14)

Last updated on Sun Jun 21 2026 00:02:55 GMT+0000 (Coordinated Universal Time)

1 41549U 16030A 26170.72932823 .00000025 00000+0 00000+0 0 9990 2 41549 55.0946 221.6250 0003049 321.1233 38.9327 1.70473928 62712
UTC large
Height (km)
Speed (km/s)
/
Latitude / Longitude
Inclination (degrees)
Orbital Period (minutes)
Azimuth
Elevation
Range (km)
Doppler Factor

Next 0 passes for location: London (51.5072 / 0.1276)

No passes found over London.
GSAT0211 (GALILEO 14)